Midland Airpark, TX
on Saturday, January 13, 2018

Saturday
Previous Day Next Day
Daily Summary
 ActualAverage (KMAF)Record (KMAF)
Temperature
Mean Temperature - -  
Max Temperature 51 °F 56 °F 80 °F (1957)
Min Temperature 25 °F 30 °F 7 °F (1964)
Degree Days
Heating Degree Days 27    
Moisture
Dew Point 12 °F   
Average Humidity 36    
Maximum Humidity 53    
Minimum Humidity 23    
Precipitation
Precipitation 0.00 in - - ()
Wind
Wind Speed 8 mph   
Max Wind Speed 12 mph   
Max Gust Speed 17 mph   
Visibility 10 miles   
Events     
Averages and records for this station are not official NWS values.
Key: T is trace of precipitation, MM is missing value
Source: NWS Daily Summary
Seasonal Weather Averages





Time(CST)TemperatureDew PointHumidity Pressure Visibility Wind DirectionWind SpeedGust SpeedPrecipitationEvents Conditions
12:15 AM 37.9 °F 13.5 °F 37% 30.35 in 10.0 miles ENE 9.2 mph - N/A   Unknown
12:35 AM 36.0 °F 14.0 °F 41% 30.38 in 10.0 miles NE 10.4 mph - N/A   Unknown
12:55 AM 35.6 °F 13.1 °F 40% 30.38 in 10.0 miles ENE 11.5 mph - N/A   Unknown
1:15 AM 35.4 °F 12.7 °F 39% 30.39 in 10.0 miles ENE 11.5 mph - N/A   Unknown
1:35 AM 35.2 °F 12.4 °F 39% 30.40 in 10.0 miles ENE 11.5 mph - N/A   Unknown
1:55 AM 35.4 °F 11.3 °F 37% 30.40 in 10.0 miles ENE 11.5 mph 17.3 mph N/A   Unknown
2:15 AM 34.9 °F 11.3 °F 38% 30.40 in 10.0 miles ENE 8.1 mph - N/A   Unknown
2:35 AM 33.4 °F 11.3 °F 40% 30.42 in 10.0 miles ENE 9.2 mph - N/A   Unknown
2:55 AM 32.5 °F 11.3 °F 41% 30.42 in 10.0 miles ENE 6.9 mph - N/A   Unknown
3:15 AM 32.0 °F 11.3 °F 42% 30.42 in 10.0 miles East 6.9 mph - N/A   Unknown
3:35 AM 31.8 °F 11.3 °F 43% 30.43 in 10.0 miles East 5.8 mph - N/A   Unknown
3:55 AM 31.1 °F 11.7 °F 45% 30.43 in 10.0 miles ENE 6.9 mph - N/A   Unknown
4:15 AM 30.2 °F 11.5 °F 46% 30.44 in 10.0 miles ENE 6.9 mph - N/A   Unknown
4:35 AM 29.3 °F 11.3 °F 47% 30.44 in 10.0 miles ENE 8.1 mph - N/A   Unknown
4:55 AM 28.9 °F 11.1 °F 47% 30.45 in 10.0 miles ENE 8.1 mph - N/A   Unknown
5:15 AM 28.8 °F 10.8 °F 47% 30.46 in 10.0 miles ENE 6.9 mph - N/A   Unknown
5:35 AM 28.4 °F 10.6 °F 47% 30.47 in 10.0 miles ENE 6.9 mph - N/A   Unknown
5:55 AM 28.2 °F 10.9 °F 48% 30.47 in 10.0 miles NE 4.6 mph - N/A   Unknown
6:15 AM 26.6 °F 11.1 °F 52% 30.48 in 10.0 miles NE 4.6 mph - N/A   Unknown
6:35 AM 27.3 °F 10.8 °F 50% 30.50 in 10.0 miles ENE 6.9 mph - N/A   Unknown
6:55 AM 27.3 °F 10.4 °F 49% 30.50 in 10.0 miles ENE 6.9 mph - N/A   Unknown
7:15 AM 26.6 °F 10.4 °F 51% 30.51 in 10.0 miles ENE 4.6 mph - N/A   Unknown
7:35 AM 25.7 °F 10.4 °F 52% 30.52 in 10.0 miles NE 4.6 mph - N/A   Unknown
7:55 AM 25.7 °F 10.8 °F 53% 30.53 in 10.0 miles ENE 4.6 mph - N/A   Unknown
8:15 AM 26.4 °F 10.4 °F 51% 30.53 in 10.0 miles ENE 5.8 mph - N/A   Unknown
8:35 AM 27.7 °F 10.4 °F 48% 30.54 in 10.0 miles ENE 5.8 mph - N/A   Unknown
8:55 AM 28.9 °F 10.4 °F 46% 30.54 in 10.0 miles ENE 6.9 mph - N/A   Unknown
9:15 AM 30.0 °F 10.4 °F 44% 30.55 in 10.0 miles ENE 5.8 mph - N/A   Unknown
9:35 AM 31.5 °F 10.4 °F 42% 30.56 in 10.0 miles NE 5.8 mph - N/A   Unknown
9:55 AM 32.2 °F 10.4 °F 40% 30.58 in 10.0 miles NE 5.8 mph - N/A   Unknown
10:15 AM 33.6 °F 10.4 °F 38% 30.59 in 10.0 miles ENE 6.9 mph - N/A   Unknown
10:35 AM 34.0 °F 10.4 °F 38% 30.59 in 10.0 miles ENE 5.8 mph - N/A   Unknown
10:55 AM 35.6 °F 10.4 °F 35% 30.59 in 10.0 miles ENE 5.8 mph - N/A   Unknown
11:15 AM 37.0 °F 10.4 °F 33% 30.58 in 10.0 miles East 3.5 mph - N/A   Unknown
11:35 AM 37.8 °F 10.4 °F 32% 30.58 in 10.0 miles East 4.6 mph - N/A   Unknown
11:55 AM 39.4 °F 10.2 °F 30% 30.57 in 10.0 miles Calm Calm - N/A   Unknown
12:15 PM 40.3 °F 10.9 °F 30% 30.55 in 10.0 miles Calm Calm - N/A   Unknown
12:35 PM 41.9 °F 10.8 °F 28% 30.54 in 10.0 miles Calm Calm - N/A   Unknown
12:55 PM 43.0 °F 10.9 °F 27% 30.52 in 10.0 miles ESE 4.6 mph - N/A   Unknown
1:15 PM 44.2 °F 11.5 °F 26% 30.51 in 10.0 miles East 5.8 mph - N/A   Unknown
1:35 PM 45.1 °F 11.8 °F 26% 30.50 in 10.0 miles Calm Calm - N/A   Unknown
1:55 PM 45.9 °F 11.8 °F 25% 30.48 in 10.0 miles SSE 4.6 mph - N/A   Unknown
2:15 PM 46.9 °F 12.0 °F 24% 30.47 in 10.0 miles South 5.8 mph - N/A   Unknown
2:35 PM 47.8 °F 12.0 °F 24% 30.46 in 10.0 miles ESE 5.8 mph - N/A   Unknown
2:55 PM 48.9 °F 12.6 °F 23% 30.44 in 10.0 miles SSE 6.9 mph - N/A   Unknown
3:15 PM 49.1 °F 13.1 °F 24% 30.44 in 10.0 miles SE 6.9 mph - N/A   Unknown
3:35 PM 49.3 °F 13.3 °F 24% 30.44 in 10.0 miles SE 10.4 mph - N/A   Unknown
3:55 PM 49.8 °F 13.3 °F 23% 30.41 in 10.0 miles SSE 8.1 mph - N/A   Unknown
4:15 PM 50.5 °F 13.6 °F 23% 30.41 in 10.0 miles SE 6.9 mph - N/A   Unknown
4:35 PM 51.1 °F 14.0 °F 23% 30.40 in 10.0 miles South 9.2 mph - N/A   Unknown
4:55 PM 50.7 °F 13.8 °F 23% 30.39 in 10.0 miles SSE 11.5 mph - N/A   Unknown
5:15 PM 50.4 °F 14.0 °F 23% 30.39 in 10.0 miles SE 9.2 mph - N/A   Unknown
5:35 PM 50.0 °F 14.2 °F 24% 30.39 in 10.0 miles SSE 10.4 mph - N/A   Unknown
5:55 PM 48.9 °F 14.0 °F 25% 30.38 in 10.0 miles SSE 10.4 mph - N/A   Unknown
6:15 PM 47.3 °F 14.4 °F 27% 30.37 in 10.0 miles SSE 5.8 mph - N/A   Unknown
6:35 PM 46.0 °F 14.2 °F 28% 30.37 in 10.0 miles SSE 5.8 mph - N/A   Unknown
6:55 PM 45.7 °F 14.0 °F 28% 30.37 in 10.0 miles SSE 4.6 mph - N/A   Unknown
7:15 PM 46.2 °F 14.0 °F 27% 30.37 in 10.0 miles SE 4.6 mph - N/A   Unknown
7:35 PM 45.5 °F 14.0 °F 28% 30.37 in 10.0 miles SE 4.6 mph - N/A   Unknown
7:55 PM 44.6 °F 14.0 °F 29% 30.37 in 10.0 miles SE 6.9 mph - N/A   Unknown
8:15 PM 44.8 °F 13.6 °F 28% 30.37 in 10.0 miles SE 8.1 mph - N/A   Unknown
8:35 PM 43.7 °F 13.6 °F 30% 30.38 in 10.0 miles SE 5.8 mph - N/A   Unknown
8:55 PM 42.6 °F 13.6 °F 31% 30.37 in 10.0 miles SE 6.9 mph - N/A   Unknown
9:15 PM 41.2 °F 13.5 °F 32% 30.38 in 10.0 miles SE 5.8 mph - N/A   Unknown
9:35 PM 41.0 °F 13.5 °F 33% 30.38 in 10.0 miles ESE 4.6 mph - N/A   Unknown
9:55 PM 39.6 °F 13.1 °F 34% 30.37 in 10.0 miles SE 5.8 mph - N/A   Unknown
10:15 PM 38.3 °F 14.7 °F 38% 30.37 in 10.0 miles South 6.9 mph - N/A   Unknown
10:35 PM 39.2 °F 14.7 °F 37% 30.36 in 10.0 miles South 8.1 mph - N/A   Unknown
10:55 PM 40.1 °F 14.9 °F 36% 30.35 in 10.0 miles South 9.2 mph - N/A   Unknown
11:15 PM 39.6 °F 15.4 °F 38% 30.35 in 10.0 miles South 9.2 mph - N/A   Unknown
11:35 PM 39.2 °F 15.8 °F 39% 30.35 in 10.0 miles South 9.2 mph - N/A   Unknown
11:55 PM 39.4 °F 15.8 °F 38% 30.34 in 10.0 miles SSE 9.2 mph - N/A   Unknown
 Powered By Weather Underground